TimeEST,TemperatureF,Dew PointF,Humidity,Sea Level PressureIn,VisibilityMPH,Wind Direction,Wind SpeedMPH,Gust SpeedMPH,PrecipitationIn,Events,Conditions,WindDirDegrees,DateUTC
12:15 AM,42.8,32.0,66,29.73,10.0,West,19.6,35.7,N/A,,Clear,260,2013-03-06 05:15:00
12:35 AM,42.8,30.2,61,29.73,10.0,West,18.4,31.1,N/A,,Scattered Clouds,260,2013-03-06 05:35:00
12:55 AM,41.0,30.2,65,29.75,10.0,West,17.3,26.5,N/A,,Scattered Clouds,280,2013-03-06 05:55:00
1:15 AM,41.0,28.4,61,29.75,10.0,West,16.1,26.5,N/A,,Mostly Cloudy,280,2013-03-06 06:15:00
1:35 AM,41.0,28.4,61,29.76,10.0,West,16.1,26.5,N/A,,Mostly Cloudy,270,2013-03-06 06:35:00
1:55 AM,39.2,28.4,65,29.76,10.0,West,15.0,27.6,N/A,,Scattered Clouds,270,2013-03-06 06:55:00
2:15 AM,39.2,28.4,65,29.76,10.0,West,17.3,32.2,N/A,,Overcast,280,2013-03-06 07:15:00
2:35 AM,39.2,26.6,61,29.76,10.0,West,12.7,24.2,N/A,,Mostly Cloudy,270,2013-03-06 07:35:00
2:55 AM,37.4,26.6,65,29.75,10.0,West,11.5,21.9,N/A,,Scattered Clouds,270,2013-03-06 07:55:00
3:15 AM,37.4,26.6,65,29.75,10.0,West,17.3,25.3,N/A,,Clear,270,2013-03-06 08:15:00
3:35 AM,37.4,26.6,65,29.75,10.0,West,13.8,28.8,N/A,,Clear,260,2013-03-06 08:35:00
3:55 AM,37.4,26.6,65,29.76,10.0,West,11.5,20.7,N/A,,Clear,270,2013-03-06 08:55:00
4:15 AM,37.4,26.6,65,29.77,10.0,West,17.3,25.3,N/A,,Clear,270,2013-03-06 09:15:00
4:55 AM,35.6,26.6,70,29.78,10.0,West,12.7,23.0,N/A,,Clear,280,2013-03-06 09:55:00
5:15 AM,35.6,24.8,65,29.78,10.0,West,15.0,19.6,N/A,,Clear,270,2013-03-06 10:15:00
5:35 AM,35.6,23.0,60,29.79,10.0,West,6.9,18.4,N/A,,Clear,280,2013-03-06 10:35:00
5:55 AM,33.8,23.0,65,29.81,10.0,West,12.7,19.6,N/A,,Clear,280,2013-03-06 10:55:00
6:15 AM,33.8,23.0,65,29.81,10.0,West,12.7,18.4,N/A,,Clear,280,2013-03-06 11:15:00
6:35 AM,33.8,23.0,65,29.82,10.0,West,9.2,16.1,N/A,,Clear,270,2013-03-06 11:35:00
6:55 AM,33.8,23.0,65,29.83,10.0,West,11.5,-,N/A,,Clear,280,2013-03-06 11:55:00
7:15 AM,33.8,21.2,60,29.84,10.0,West,11.5,21.9,N/A,,Clear,270,2013-03-06 12:15:00
7:35 AM,33.8,21.2,60,29.85,10.0,West,15.0,24.2,N/A,,Clear,270,2013-03-06 12:35:00
7:55 AM,33.8,21.2,60,29.85,10.0,West,11.5,24.2,N/A,,Clear,270,2013-03-06 12:55:00
8:15 AM,35.6,23.0,60,29.87,10.0,West,12.7,24.2,N/A,,Clear,270,2013-03-06 13:15:00
8:35 AM,35.6,23.0,60,29.87,10.0,West,9.2,23.0,N/A,,Clear,270,2013-03-06 13:35:00
8:55 AM,35.6,23.0,60,29.88,10.0,West,12.7,18.4,N/A,,Clear,260,2013-03-06 13:55:00
9:15 AM,37.4,23.0,56,29.88,10.0,West,11.5,25.3,N/A,,Clear,280,2013-03-06 14:15:00
9:35 AM,39.2,23.0,52,29.89,10.0,West,19.6,27.6,N/A,,Clear,270,2013-03-06 14:35:00
9:55 AM,41.0,23.0,49,29.90,10.0,West,18.4,26.5,N/A,,Clear,280,2013-03-06 14:55:00
10:15 AM,42.8,23.0,46,29.91,10.0,WNW,18.4,25.3,N/A,,Clear,300,2013-03-06 15:15:00
10:35 AM,41.0,23.0,49,29.91,10.0,WNW,15.0,23.0,N/A,,Clear,290,2013-03-06 15:35:00
10:55 AM,41.0,23.0,49,29.93,10.0,West,15.0,26.5,N/A,,Scattered Clouds,280,2013-03-06 15:55:00
11:15 AM,42.8,23.0,46,29.92,10.0,West,17.3,23.0,N/A,,Scattered Clouds,280,2013-03-06 16:15:00
11:35 AM,44.6,23.0,43,29.92,10.0,NW,18.4,25.3,N/A,,Scattered Clouds,310,2013-03-06 16:35:00
11:55 AM,44.6,23.0,43,29.93,10.0,NW,9.2,16.1,N/A,,Scattered Clouds,310,2013-03-06 16:55:00
12:15 PM,46.4,23.0,40,29.91,10.0,WNW,13.8,26.5,N/A,,Scattered Clouds,290,2013-03-06 17:15:00
12:35 PM,46.4,24.8,43,29.92,10.0,WNW,15.0,24.2,N/A,,Clear,300,2013-03-06 17:35:00
12:55 PM,48.2,24.8,40,29.91,10.0,NW,16.1,25.3,N/A,,Clear,310,2013-03-06 17:55:00
1:15 PM,50.0,23.0,35,29.91,10.0,NW,15.0,31.1,N/A,,Clear,320,2013-03-06 18:15:00
1:55 PM,50.0,26.6,40,29.91,10.0,WNW,19.6,27.6,N/A,,Mostly Cloudy,300,2013-03-06 18:55:00
2:15 PM,50.0,26.6,40,29.91,10.0,NW,15.0,25.3,N/A,,Mostly Cloudy,310,2013-03-06 19:15:00
2:35 PM,50.0,26.6,40,29.91,10.0,NW,16.1,24.2,N/A,,Mostly Cloudy,320,2013-03-06 19:35:00
2:55 PM,48.2,26.6,43,29.93,10.0,NNW,17.3,28.8,N/A,,Overcast,330,2013-03-06 19:55:00
3:15 PM,48.2,26.6,43,29.94,10.0,NNW,19.6,31.1,N/A,,Mostly Cloudy,330,2013-03-06 20:15:00
3:35 PM,46.4,26.6,46,29.96,10.0,NNW,20.7,27.6,N/A,,Scattered Clouds,330,2013-03-06 20:35:00
3:55 PM,46.4,26.6,46,29.96,10.0,NW,13.8,28.8,N/A,,Clear,320,2013-03-06 20:55:00
4:15 PM,46.4,26.6,46,29.96,10.0,NNW,12.7,28.8,N/A,,Clear,330,2013-03-06 21:15:00
4:35 PM,46.4,26.6,46,29.98,10.0,NW,15.0,26.5,N/A,,Clear,320,2013-03-06 21:35:00
4:55 PM,46.4,26.6,46,29.99,10.0,North,16.1,21.9,N/A,,Clear,350,2013-03-06 21:55:00
5:15 PM,44.6,26.6,49,30.00,10.0,NNW,12.7,27.6,N/A,,Clear,340,2013-03-06 22:15:00
5:35 PM,44.6,28.4,53,30.02,10.0,NNW,18.4,26.5,N/A,,Clear,340,2013-03-06 22:35:00
5:55 PM,42.8,26.6,53,30.03,10.0,NNW,16.1,24.2,N/A,,Clear,330,2013-03-06 22:55:00
6:15 PM,41.0,26.6,57,30.04,10.0,NNW,13.8,23.0,N/A,,Clear,340,2013-03-06 23:15:00
6:35 PM,41.0,28.4,61,30.06,10.0,NNW,11.5,18.4,N/A,,Clear,330,2013-03-06 23:35:00
6:55 PM,39.2,28.4,65,30.08,10.0,NNW,9.2,16.1,N/A,,Clear,340,2013-03-06 23:55:00
7:15 PM,39.2,28.4,65,30.08,10.0,NNW,8.1,17.3,N/A,,Clear,330,2013-03-07 00:15:00
7:35 PM,37.4,28.4,70,30.09,10.0,NNW,6.9,-,N/A,,Clear,330,2013-03-07 00:35:00
7:55 PM,37.4,28.4,70,30.09,10.0,NNW,6.9,17.3,N/A,,Clear,330,2013-03-07 00:55:00
8:15 PM,35.6,28.4,75,30.10,10.0,NNW,5.8,-,N/A,,Clear,330,2013-03-07 01:15:00
8:35 PM,35.6,28.4,75,30.10,10.0,NW,4.6,-,N/A,,Clear,310,2013-03-07 01:35:00
8:55 PM,33.8,28.4,81,30.10,10.0,Calm,Calm,-,N/A,,Clear,0,2013-03-07 01:55:00
9:15 PM,35.6,28.4,75,30.09,10.0,NNW,5.8,-,N/A,,Clear,330,2013-03-07 02:15:00
9:35 PM,33.8,28.4,81,30.10,10.0,NW,5.8,-,N/A,,Clear,320,2013-03-07 02:35:00
9:55 PM,33.8,28.4,81,30.11,10.0,NW,6.9,-,N/A,,Clear,310,2013-03-07 02:55:00
10:15 PM,33.8,28.4,81,30.12,10.0,NNW,3.5,-,N/A,,Clear,330,2013-03-07 03:15:00
10:35 PM,33.8,28.4,81,30.12,10.0,NNW,4.6,-,N/A,,Clear,340,2013-03-07 03:35:00
10:55 PM,33.8,28.4,81,30.13,10.0,NW,4.6,-,N/A,,Clear,320,2013-03-07 03:55:00
11:15 PM,32.0,28.4,87,30.13,10.0,NNW,3.5,-,N/A,,Clear,330,2013-03-07 04:15:00
11:35 PM,32.0,26.6,80,30.14,10.0,NW,4.6,-,N/A,,Clear,320,2013-03-07 04:35:00
11:55 PM,32.0,26.6,80,30.13,10.0,North,3.5,-,N/A,,Clear,10,2013-03-07 04:55:00